カタログに戻る

STARLINK-11577

運用中通信VLEO
NORAD 63013·PAYLOAD·🇺🇸 United States

打ち上げ Feb 15, 2025 から Cape Canaveral Space Force Station

Loading…

次のパス (今後24時間)

TLE

最新Source: CelesTrak SupGP

元期: Sep 15, 2026, 02:18 UTC

1 63013C 25032J   26258.09631944  .00054916  00000+0  42648-3 0  2583
2 63013  43.0004 133.7425 0001575 265.4501  22.3217 15.70814566    13

AllMySatでSTARLINK-11577をリアルタイム追跡

Download on the App Store